This is the latest recevied weather packets stored in our database for station/object APPOWX. If no packets are shown the sender has not sent any weather packets the latest 1 day(s).
| Time | Temp. | Humidity | Pressure | Rain* | Wind** | Luminosity | Snow |
|---|---|---|---|---|---|---|---|
| 1777994258 | 23.33° C | 53% | 1017.6 hPa | 0 mm | 0 m/s | - | - |
| 1777994197 | 23.33° C | 49% | 1017.6 hPa | 0 mm | 0.89 m/s, 68° | - | - |
| 1777994137 | 23.33° C | 46% | 1017.8 hPa | 0 mm | 0.89 m/s, 74° | - | - |
| 1777994077 | 22.78° C | 47% | 1017.6 hPa | 0 mm | 0.89 m/s, 80° | - | - |
| 1777994017 | 22.78° C | 50% | 1017.7 hPa | 0 mm | 0 m/s | - | - |
| 1777993957 | 22.78° C | 48% | 1017.7 hPa | 0 mm | 0 m/s | - | - |
| 1777993897 | 22.78° C | 48% | 1017.7 hPa | 0 mm | 0 m/s | - | - |
| 1777993837 | 23.33° C | 48% | 1017.8 hPa | 0 mm | 0.45 m/s, 84° | - | - |
| 1777993777 | 23.33° C | 48% | 1017.7 hPa | 0 mm | 0.45 m/s, 60° | - | - |
| 1777993717 | 23.33° C | 47% | 1017.7 hPa | 0 mm | 0.45 m/s, 83° | - | - |
| 1777993656 | 23.33° C | 51% | 1017.7 hPa | 0 mm | 0.45 m/s, 63° | - | - |
| 1777993596 | 22.22° C | 52% | 1017.8 hPa | 0 mm | 0 m/s | - | - |
| 1777993536 | 22.22° C | 50% | 1017.9 hPa | 0 mm | 0.45 m/s, 81° | - | - |
| 1777993476 | 21.67° C | 53% | 1017.6 hPa | 0 mm | 0 m/s | - | - |
| 1777993416 | 21.67° C | 52% | 1017.9 hPa | 0 mm | 0 m/s | - | - |
| 1777993356 | 21.67° C | 49% | 1017.9 hPa | 0 mm | 0 m/s | - | - |
| 1777993296 | 21.67° C | 52% | 1017.9 hPa | 0 mm | 0 m/s | - | - |
| 1777993236 | 22.22° C | 50% | 1017.8 hPa | 0 mm | 0 m/s | - | - |
| 1777993176 | 22.78° C | 50% | 1017.8 hPa | 0 mm | 0.45 m/s, 58° | - | - |
| 1777993116 | 22.78° C | 50% | 1018 hPa | 0 mm | 0.45 m/s, 71° | - | - |
| 1777993056 | 22.22° C | 49% | 1017.9 hPa | 0 mm | 0.45 m/s, 62° | - | - |
| 1777992996 | 22.22° C | 49% | 1017.9 hPa | 0 mm | 0.45 m/s, 65° | - | - |
| 1777992935 | 21.67° C | 54% | 1017.7 hPa | 0 mm | 0.45 m/s, 49° | - | - |
| 1777992876 | 21.67° C | 50% | 1017.8 hPa | 0 mm | 0 m/s | - | - |
| 1777992816 | 21.67° C | 50% | 1017.8 hPa | 0 mm | 0 m/s | - | - |
* Rain latest hour (hover to see other rain measurements)
** Current wind speed in m/s (hover to see current wind gust speed)